STARLINK-1298, 45413

Orbit data source: Space-Track

STARLINK-1298, 45413 is a payload satellite owned by SpaceX/Seattle (US) in LEO that was launched on Wed, 18 Mar 2020 UTC via an FALCON 9 launch vehicle from the Air Force Eastern Test Range (AFETR). Payload-class satellites include a variety of spacecraft equipped with specific instruments for various scientific and technological missions. These include communications satellites like Starlink; space stations such as the ISS; scientific satellites like the Hubble; Earth observation satellites from companies like Planet Labs, Umbra, and HawkEye 360; GPS; miniature CubeSats for education and research; and military/defense satellites.

Loading next visibility...
Identifier
45413, 2020-019BF
Orbit
LEO
Country
Flag of USUS
Related business
Manufacturer
SpaceX/Seattle
Mission
Partially operational Commercial Communications
Bus & Motor
STARLINK, Unknown motor
Mass
260 kg wet, ~248 kg dry
Launch date (UTC)
2020-03-18 (6 years ago)
Launch vehicle
FALCON 9
Launch site
Air Force Eastern Test Range (AFETR)
Object type
Payload
Rocket body
Debris
Shape & HBR
Box + 1 Pan, 10.1 m
Radar Cross Section
13.562 m², Large (>1 m²)

Expand to show TLE details & history
Last TLE update: 17 hours ago

TLE from 17 hours ago
0 STARLINK-1298
1 45413U 20019BF  25341.19066512  .00077742  00000-0  96745-3 0  9995
2 45413  53.0454 155.0944 0007846  86.9655 273.2254 15.59253993316536
Epoch: 2025-12-07T04:34Z
TLE epoch observation values (Epoch: 2025-12-07T04:34:33.466Z)
Latitude
-0.00006°
Longitude
10.24731°
Altitude
390.419 km
Speed
7.677 km/s
True Right ascension
10h 20m 22s
True Declination
0° 00' 00"
Sunlit
Object was in daylight at epoch
Visualization orbit readout
Latitude
Unknown
Longitude
Unknown
Altitude
Unknown
Speed
Unknown
Apparent Right ascension
Unknown
Apparent Declination
Unknown
Sunlit
N/A
Visualization observer readout
Local Sidereal Time
19:33:35
Azimuth
Unknown
Elevation
Unknown
Doppler factor
Unknown
Orbital elements
Apogee altitude
395.404 km
Perigee altitude
384.783 km
Semi-major axis
6,768.23 km
Eccentricity
0.00078
Inclination
53.0454°
RAAN
155.0944°
Arg. of periapsis
86.9655°
True anomaly
273.13563°
Mean anomaly
273.2254°
Eccentric anomaly
273.18051°
Mean motion
3.8979 °/min
Orbital period
92.36 mins
BSTAR
0.00096745
Loading maneuver chart data...
Computing Atmospheric mass density...

Documentation

Showing up to 5 results
|